Location: Linz
(48.3300°N, 14.3000°E)
Time: 02:35:47
(UTC+02:00)

YUBILEINY - Pass Details

Date: 21 February 2019
Orbit: 1478 x 1508 km, 82.5° (Epoch: 22 October)

Event Time Altitude Azimuth Distance (km) Brightness Sun altitude
Rises 18:22:37 0° 338° (NNW) 4,633 ? -8.8°
Reaches altitude 10° 18:28:06 10° 311° (NW) 3,654 ? -9.7°
Maximum altitude 18:30:47 12° 292° (WNW) 3,515 ? -10.2°
Drops below altitude 10° 18:33:29 10° 274° (W) 3,655 ? -10.6°
Sets 18:39:00 0° 246° (WSW) 4,636 ? -11.5°
